Back to catalog

FENGYUN 1C DEB

AlivePO
NORAD 36142·DEBRIS·🇨🇳 China

Launched May 10, 1999 from Taiyuan Satellite Launch Center

Loading…

Next Passes (next 24 hours)

TLE

AgingSource: Space-Track

Epoch: Sep 10, 2026, 23:55 UTC

1 36142U 99025DRP 26253.99697633  .00001288  00000-0  10169-2 0  9999
2 36142  98.4201 170.1501 0210345 320.9328  37.6797 13.83425442659273

Track FENGYUN 1C DEB in real time with AllMySat

Download on the App Store